Location: Northam
(31.6525°S, 116.6655°E)
Time: 19:44:11
(UTC+08:00)

AAUSAT CUBESAT 2 - Pass Details

Date: 04 August 2021
Orbit: 572 x 587 km, 97.5° (Epoch: 18 September)

Event Time Altitude Azimuth Distance (km) Brightness Sun altitude
Rises 18:47:01 0° 198° (SSW) 2,849 ? -14.6°
Drops below altitude 10° 18:50:44 - 232° (SW) 1,991 ? -15.4°
Maximum altitude 18:51:49 10° 247° (WSW) 1,931 ? -15.6°
Sets 18:56:36 0° 297° (WNW) 2,812 ? -16.6°
